Погода в Канхве

Южная Корея     37°27′56″N   126°38′50″E
темп.,
°C
ветер,
м/с
пор.,
м/с
влажн.,
%
обл.,
%
осадки,
мм/ч
давл.,
гПа
погр.,
м
5 августа, чт
чт500:00+27зюз127966 0.0 1008195
03:00+26зюз118324 0.0 1008119
06:00+26юв11844 0.0 100844
09:00+29ю12650 0.0 1007640
12:00+31зюз335423 0.0 10071385
15:00+32зюз43510 0.0 10051145
18:00+30з44600 0.0 1004538
21:00+28сз34691 0.0 1005302
6 августа, пт
пт600:00+27ссз01720 0.0 1005121
03:00+26зюз1175100 0.0 100429
06:00+26ссз0177100 0.0 100440
09:00+29сз1163100 0.0 1004597
12:00+31з4354100 0.1 10041281
15:00+30сз4356100 0.1 1003881
18:00+30ссз335595 0.0 1002776
21:00+28ссз356461 0.0 1003275
7 августа, сб
сб700:00+26ссз35685 0.2 1004233
03:00+24с257312 0.4 1003201
06:00+24с237568 0.0 1004153
09:00+27с2361100 0.3 1004444
12:00+31зсз324761 0.1 10041008
15:00+32зсз4348100 0.1 10031051
18:00+30сз4456100 0.0 1003599
21:00+27сз2470100 0.0 1004216
8 августа, вс
вс800:00+27сз127251 0.0 100491
03:00+25ссз22740 0.0 1004108
06:00+24с12790 0.0 100493
09:00+28сз11630 0.0 1005574
12:00+32з32450 0.0 10041330
15:00+31зюз53500 0.0 1004988
18:00+29з445830 0.0 1004484
21:00+28зсз12681 0.0 1005149
9 августа, пн
пн900:00+27зюз11734 0.0 100667
03:00+26юв11776 0.0 100534
06:00+25в11795 0.0 100653
09:00+29вюв24585 0.0 1006639
12:00+33вюв3445100 0.0 10051757
15:00+34ю2442100 0.0 10032246
18:00+32ююв3547100 0.0 10031208
21:00+29юв4860100 0.3 1005715